S56BOT-1 Weather Reports


Display with metric or nautical units.
time (UTC)temp
F
wind
direction
speed
MPH
gust
MPH
rain 1hr
in
rain 24hr
in
rain mn
in
humidity
%
barometer
mb
20260906044553 76 124 17.0 30.0 0.00 0.00 0.00 53 1021.0
20260906043048 76 116 18.0 27.0 0.00 0.00 0.00 53 1021.0
20260906041546 76 100 14.0 22.0 0.00 0.00 0.00 54 1020.8
20260906040048 76 102 14.0 22.0 0.00 0.00 0.00 53 1020.7
20260906034600 76 103 11.0 20.0 0.00 0.00 0.00 53 1020.5
20260906033045 77 101 16.0 22.0 0.00 0.00 0.00 52 1020.4
20260906031549 77 122 15.0 25.0 0.00 0.00 0.00 51 1020.3
20260906030043 77 101 15.0 23.0 0.00 0.00 0.00 52 1020.3
20260906024546 78 98 16.0 25.0 0.00 0.00 0.00 51 1020.3
20260906023049 78 113 16.0 24.0 0.00 0.00 0.00 51 1020.2
20260906021601 78 88 14.0 24.0 0.00 0.00 0.00 51 1020.1
20260906020055 77 86 12.0 22.0 0.00 0.00 0.00 53 1020.1
20260906014552 76 105 10.0 15.0 0.00 0.00 0.00 55 1020.2
20260906013042 76 108 9.0 16.0 0.00 0.00 0.00 54 1020.2
20260906011551 76 109 11.0 16.0 0.00 0.00 0.00 54 1020.2
20260906010048 76 114 10.0 13.0 0.00 0.00 0.00 54 1020.1
20260906004545 76 76 9.0 15.0 0.00 0.00 0.00 54 1020.0
20260906003046 74 128 8.0 14.0 0.00 0.00 0.00 58 1020.2
20260906001544 73 98 8.0 12.0 0.00 0.00 0.00 60 1020.2
20260906000047 74 105 6.0 11.0 0.00 0.00 0.00 59 1020.2
20260905234544 75 108 9.0 12.0 0.00 0.00 0.00 58 1019.9
20260905233044 75 109 8.0 11.0 0.00 0.00 0.00 58 1019.9
20260905231542 75 114 9.0 13.0 0.00 0.00 0.00 58 1019.8
20260905230052 75 89 8.0 12.0 0.00 0.00 0.00 58 1019.8
20260905224551 75 94 8.0 12.0 0.00 0.00 0.00 58 1019.8
20260905223045 76 98 9.0 13.0 0.00 0.00 0.00 57 1019.7
20260905221547 76 105 9.0 12.0 0.00 0.00 0.00 57 1019.7
20260905220045 76 89 8.0 12.0 0.00 0.00 0.00 56 1019.6
20260905214545 76 104 7.0 12.0 0.00 0.00 0.00 58 1019.6
20260905213049 76 85 8.0 10.0 0.00 0.00 0.00 58 1019.4
20260905211547 76 86 7.0 11.0 0.00 0.00 0.00 58 1019.4
20260905210058 76 110 8.0 13.0 0.00 0.00 0.00 60 1019.4
20260905204546 75 99 6.0 8.0 0.00 0.00 0.00 62 1019.3
20260905203043 75 96 5.0 11.0 0.00 0.00 0.00 61 1019.2
20260905201544 75 107 7.0 9.0 0.00 0.00 0.00 61 1019.0
20260905200056 75 82 7.0 9.0 0.00 0.00 0.00 61 1018.9
20260905194546 75 87 5.0 8.0 0.00 0.00 0.00 62 1018.9
20260905193042 74 103 6.0 8.0 0.00 0.00 0.00 64 1018.7
20260905191550 74 82 5.0 7.0 0.00 0.00 0.00 63 1018.6
20260905190048 75 105 6.0 8.0 0.00 0.00 0.00 62 1018.6
20260905184549 75 82 4.0 7.0 0.00 0.00 0.00 61 1018.4
20260905183044 76 117 4.0 7.0 0.00 0.00 0.00 60 1018.2
20260905181553 77 105 5.0 8.0 0.00 0.00 0.00 58 1018.0
20260905180051 79 89 7.0 8.0 0.00 0.00 0.00 55 1017.8
20260905174544 81 127 9.0 12.0 0.00 0.00 0.00 52 1017.6
20260905173045 81 125 7.0 11.0 0.00 0.00 0.00 53 1017.4
20260905171556 81 116 7.0 10.0 0.00 0.00 0.00 59 1017.3
20260905170055 84 77 1.0 2.0 0.00 0.00 0.00 62 1017.1
20260905164547 85 130 0.0 2.0 0.00 0.00 0.00 66 1017.0
20260905163041 86 312 0.0 2.0 0.00 0.00 0.00 65 1016.7
20260905161547 86 124 0.0 2.0 0.00 0.00 0.00 49 1016.6
20260905160050 86 185 0.0 2.0 0.00 0.00 0.00 60 1016.4
20260905154552 86 220 1.0 2.0 0.00 0.00 0.00 59 1016.4
20260905153047 87 220 2.0 6.0 0.00 0.00 0.00 57 1016.5
20260905151548 88 154 1.0 5.0 0.00 0.00 0.00 57 1016.4
20260905150046 88 234 1.0 4.0 0.00 0.00 0.00 55 1016.4
20260905144550 89 240 3.0 7.0 0.00 0.00 0.00 55 1016.4
20260905143050 90 259 2.0 5.0 0.00 0.00 0.00 49 1016.3
20260905141547 90 208 3.0 5.0 0.00 0.00 0.00 48 1016.4
20260905140045 89 274 1.0 7.0 0.00 0.00 0.00 45 1016.4
20260905134549 89 272 3.0 8.0 0.00 0.00 0.00 48 1016.6
20260905133047 89 301 4.0 7.0 0.00 0.00 0.00 54 1016.6
20260905131546 89 206 4.0 8.0 0.00 0.00 0.00 57 1016.4
20260905130043 89 241 2.0 6.0 0.00 0.00 0.00 57 1016.7
20260905124551 89 122 2.0 7.0 0.00 0.00 0.00 56 1016.7
20260905123048 88 287 1.0 6.0 0.00 0.00 0.00 53 1016.9
20260905121543 88 309 2.0 6.0 0.00 0.00 0.00 51 1017.0
20260905120050 88 226 2.0 7.0 0.00 0.00 0.00 53 1017.0
20260905114553 87 228 4.0 8.0 0.00 0.00 0.00 52 1017.1
20260905113043 88 217 2.0 7.0 0.00 0.00 0.00 50 1017.1
20260905111600 87 315 4.0 8.0 0.00 0.00 0.00 49 1017.1
20260905104549 87 204 1.0 4.0 0.00 0.00 0.00 42 1017.1
20260905103045 86 265 1.0 3.0 0.00 0.00 0.00 40 1017.4
20260905101549 86 263 2.0 4.0 0.00 0.00 0.00 38 1017.3
20260905100049 86 256 2.0 7.0 0.00 0.00 0.00 39 1017.3
20260905094558 86 251 4.0 9.0 0.00 0.00 0.00 38 1017.3
20260905093044 85 252 2.0 8.0 0.00 0.00 0.00 41 1017.4
20260905091600 86 258 2.0 6.0 0.00 0.00 0.00 38 1017.3
20260905090046 87 107 2.0 4.0 0.00 0.00 0.00 36 1017.1
20260905084546 86 280 0.0 3.0 0.00 0.00 0.00 34 1017.1
20260905083049 85 36 1.0 3.0 0.00 0.00 0.00 45 1017.1
20260905081558 83 107 3.0 5.0 0.00 0.00 0.00 48 1017.0
20260905080053 81 104 3.0 7.0 0.00 0.00 0.00 51 1017.0
20260905074548 78 107 5.0 10.0 0.00 0.00 0.00 55 1016.9
20260905073048 78 70 4.0 8.0 0.00 0.00 0.00 56 1016.9
20260905071554 76 114 5.0 8.0 0.00 0.00 0.00 58 1016.6
20260905070052 75 126 4.0 9.0 0.00 0.00 0.00 61 1016.6
20260905064555 74 66 5.0 9.0 0.00 0.00 0.00 62 1016.4
20260905063044 71 109 6.0 12.0 0.00 0.00 0.00 64 1016.6
20260905061605 70 83 9.0 12.0 0.00 0.00 0.00 66 1016.4
20260905060043 68 119 7.0 12.0 0.00 0.00 0.00 70 1016.5
20260905054550 66 101 6.0 10.0 0.00 0.00 0.00 72 1016.5
20260905053050 65 115 6.0 11.0 0.00 0.00 0.00 75 1016.8
20260905051545 64 91 7.0 12.0 0.00 0.00 0.00 76 1016.7
20260905050042 64 97 6.0 9.0 0.00 0.00 0.00 77 1016.8